DW2213 Weather Reports


time (UTC)temp
C
wind
direction
speed
KPH
gust
KPH
rain 1hr
cm
rain 24hr
cm
rain mn
cm
humidity
%
barometer
mb
20260503180804 20 119 8.0 11.3 0.00 0.15 0.15 77 1011.4
20260503175804 20 135 4.8 11.3 0.00 0.15 0.15 77 1011.2
20260503174804 20 102 8.0 9.7 0.00 0.15 0.15 76 1011.3
20260503174304 20 90 8.0 9.7 0.00 0.15 0.15 76 1011.3
20260503173804 20 115 6.4 11.3 0.00 0.15 0.15 75 1011.2
20260503173303 20 73 4.8 12.9 0.00 0.15 0.15 74 1011.4
20260503172305 20 108 8.0 14.5 0.00 0.15 0.15 73 1011.4
20260503140305 21 31 9.7 14.5 0.00 0.15 0.15 69 1012.5
20260503131305 22 30 8.0 16.1 0.00 0.15 0.15 65 1012.7
20260503130804 22 59 8.0 12.9 0.00 0.15 0.15 64 1012.7
20260503110805 21 94 8.0 12.9 0.00 0.15 0.15 74 1013.7
20260503110305 21 115 8.0 11.3 0.00 0.15 0.15 75 1013.7
20260503081304 18 126 3.2 4.8 0.08 0.18 0.15 88 1014.6
20260503080805 18 125 1.6 4.8 0.05 0.15 0.13 88 1014.6
20260503080304 18 125 1.6 8.0 0.05 0.15 0.13 88 1014.4
20260503072804 18 130 3.2 8.0 0.00 0.10 0.08 86 1014.3
20260503071804 18 108 3.2 8.0 0.00 0.10 0.08 86 1014.1
20260503070805 18 105 1.6 3.2 0.00 0.10 0.08 87 1014.1
20260503060304 18 105 3.2 8.0 0.00 0.10 0.08 87 1013.7
20260503054804 17 103 1.6 4.8 0.00 0.10 0.08 87 1013.9
20260503054304 17 103 1.6 4.8 0.00 0.10 0.08 87 1013.8
20260503053804 17 103 1.6 4.8 0.00 0.10 0.08 87 1013.8
20260503051804 17 103 3.2 8.0 0.00 0.10 0.08 87 1013.6
20260503051304 17 91 1.6 8.0 0.00 0.10 0.08 87 1013.5
20260503050805 18 98 0.0 1.6 0.00 0.10 0.08 87 1013.4
20260503050304 18 98 0.0 0.0 0.00 0.10 0.08 87 1013.5
20260503045804 18 98 0.0 1.6 0.00 0.10 0.08 87 1013.6
20260503045305 18 98 0.0 0.0 0.00 0.10 0.08 86 1013.6
20260503044804 18 98 1.6 3.2 0.00 0.10 0.08 86 1013.7
20260503044304 18 98 1.6 4.8 0.00 0.10 0.08 86 1013.7
20260503043804 18 98 1.6 4.8 0.00 0.10 0.08 86 1013.6
20260503043305 18 98 1.6 4.8 0.00 0.10 0.08 86 1013.6
20260503042804 18 99 1.6 3.2 0.00 0.10 0.08 86 1013.6
20260503042305 18 99 3.2 8.0 0.00 0.10 0.08 86 1013.7
20260503041805 18 98 1.6 3.2 0.00 0.10 0.08 86 1013.7
20260503041305 18 98 1.6 4.8 0.00 0.10 0.08 86 1013.6
20260503040804 18 98 3.2 8.0 0.00 0.10 0.08 87 1013.5
20260503035804 17 98 3.2 4.8 0.00 0.10 0.08 88 1013.5
20260503035305 17 98 1.6 3.2 0.00 0.10 0.08 88 1013.5
20260503034804 17 99 1.6 3.2 0.00 0.10 0.08 89 1013.5
20260503034304 17 98 1.6 4.8 0.00 0.10 0.08 89 1013.6
20260503033305 17 21 1.6 4.8 0.00 0.10 0.08 89 1013.6
20260503032804 18 31 0.0 0.0 0.00 0.10 0.08 89 1013.5
20260503032304 17 31 1.6 3.2 0.00 0.10 0.08 90 1013.5
20260503031804 17 29 0.0 0.0 0.00 0.10 0.08 90 1013.6
20260503030804 17 0 0.0 4.8 0.00 0.10 0.08 90 1013.6
20260503025804 17 8 3.2 4.8 0.00 0.10 0.08 90 1013.5
20260503025305 17 29 1.6 3.2 0.00 0.10 0.08 90 1013.5
20260503024805 17 9 3.2 4.8 0.00 0.10 0.08 90 1013.7
20260503024304 17 29 0.0 3.2 0.00 0.10 0.08 90 1013.8
20260503023804 17 29 1.6 3.2 0.00 0.10 0.08 90 1014.0
20260503023304 17 29 0.0 0.0 0.00 0.10 0.08 90 1014.1
20260503022804 17 30 0.0 0.0 0.00 0.10 0.08 91 1014.2
20260503022305 17 30 1.6 3.2 0.00 0.10 0.08 90 1014.3
20260503021804 17 32 1.6 3.2 0.00 0.10 0.08 91 1014.3
20260503021304 17 32 0.0 1.6 0.00 0.10 0.08 91 1014.3
20260503020804 17 33 0.0 0.0 0.00 0.10 0.08 91 1014.4
20260503020304 17 34 1.6 3.2 0.00 0.10 0.08 91 1014.4
20260503015804 17 21 3.2 4.8 0.00 0.10 0.08 90 1014.4
20260503014804 17 10 4.8 4.8 0.00 0.10 0.08 90 1014.4
20260503014304 17 24 3.2 4.8 0.00 0.10 0.08 91 1014.5
20260503013804 17 25 3.2 4.8 0.00 0.10 0.08 90 1014.5
20260503013304 17 26 1.6 4.8 0.00 0.10 0.08 90 1014.5
20260503012804 17 25 3.2 4.8 0.00 0.10 0.08 90 1014.5
20260503012305 17 16 3.2 4.8 0.03 0.10 0.08 90 1014.6
20260503011805 17 26 1.6 4.8 0.03 0.10 0.08 90 1014.8
20260503011305 17 24 0.0 3.2 0.03 0.10 0.08 90 1014.8
20260503010804 17 28 1.6 4.8 0.03 0.10 0.08 90 1015.0
20260503010304 17 29 1.6 4.8 0.05 0.10 0.08 90 1014.9
20260503005304 18 26 3.2 4.8 0.05 0.10 0.08 90 1015.1
20260503004804 17 28 0.0 1.6 0.05 0.10 0.08 90 1015.1
20260503003804 17 26 0.0 0.0 0.08 0.10 0.08 89 1015.1
20260503003305 17 24 0.0 3.2 0.08 0.10 0.08 89 1015.2
20260503002804 17 28 0.0 3.2 0.08 0.10 0.08 89 1015.3
20260503002305 17 25 0.0 4.8 0.05 0.08 0.05 89 1015.4
20260503001804 18 24 3.2 4.8 0.05 0.08 0.05 89 1015.6
20260503001305 18 10 4.8 9.7 0.05 0.08 0.05 88 1015.6
20260503000804 18 48 3.2 9.7 0.05 0.08 0.05 89 1015.5
20260503000304 18 51 1.6 9.7 0.03 0.05 0.03 89 1015.6
20260502235804 18 67 4.8 9.7 0.03 0.05 0.03 88 1015.8
20260502235305 18 85 8.0 11.3 0.03 0.05 0.03 88 1015.8
20260502234804 18 103 4.8 11.3 0.03 0.05 0.03 88 1015.9
20260502234304 18 17 6.4 12.9 0.00 0.03 0.00 88 1016.0
20260502233804 18 58 4.8 8.0 0.00 0.03 0.00 88 1016.0
20260502233304 18 44 4.8 9.7 0.00 0.03 0.00 88 1016.0
20260502232804 18 56 4.8 8.0 0.00 0.03 0.00 88 1015.9
20260502231804 18 42 3.2 8.0 0.00 0.03 0.00 87 1015.9
20260502231304 18 67 3.2 4.8 0.00 0.03 0.00 87 1015.9
20260502230803 18 64 3.2 9.7 0.00 0.03 0.00 87 1015.9
20260502230304 18 92 1.6 8.0 0.00 0.03 0.00 86 1016.0
20260502225804 18 88 3.2 11.3 0.00 0.03 0.00 86 1015.9
20260502224805 18 99 3.2 8.0 0.00 0.03 0.00 86 1016.0
20260502224304 18 103 1.6 8.0 0.00 0.03 0.00 85 1015.9
20260502223804 18 100 1.6 4.8 0.00 0.03 0.00 85 1015.9
20260502223304 18 100 0.0 3.2 0.00 0.03 0.00 85 1016.0
20260502222803 18 100 3.2 4.8 0.00 0.03 0.00 85 1016.1
20260502222305 18 100 1.6 4.8 0.00 0.03 0.00 85 1016.0
20260502221804 18 100 0.0 4.8 0.00 0.03 0.00 85 1016.0
20260502220304 18 96 0.0 0.0 0.00 0.03 0.00 84 1016.3
20260502215804 18 19 1.6 8.0 0.00 0.03 0.03 84 1016.1
20260502214804 18 102 1.6 8.0 0.00 0.03 0.03 84 1016.3
20260502214304 18 96 3.2 8.0 0.00 0.03 0.03 84 1016.3
20260502213804 18 103 0.0 8.0 0.00 0.03 0.03 83 1016.3
20260502213304 18 81 3.2 4.8 0.00 0.03 0.03 83 1016.3
20260502212804 18 101 1.6 4.8 0.00 0.03 0.03 83 1016.1
20260502212305 18 99 4.8 8.0 0.00 0.03 0.03 83 1016.3
20260502211803 18 99 0.0 3.2 0.00 0.03 0.03 83 1016.4
20260502211304 18 99 1.6 8.0 0.00 0.03 0.03 83 1016.3
20260502210804 18 96 4.8 8.0 0.00 0.03 0.03 83 1016.2
20260502210304 18 101 3.2 4.8 0.00 0.03 0.03 83 1016.2
20260502205804 18 77 1.6 8.0 0.00 0.03 0.03 82 1016.1
20260502205305 18 81 3.2 9.7 0.00 0.03 0.03 82 1016.2
20260502204804 18 106 6.4 9.7 0.00 0.03 0.03 82 1016.0
20260502204304 18 110 1.6 3.2 0.00 0.03 0.03 82 1016.0
20260502203804 18 110 0.0 4.8 0.00 0.03 0.03 82 1016.1
20260502203303 19 110 1.6 4.8 0.00 0.03 0.03 82 1016.0
20260502202803 19 110 1.6 8.0 0.00 0.03 0.03 82 1015.9
20260502202305 19 110 4.8 8.0 0.00 0.03 0.03 82 1015.8
20260502201304 19 109 3.2 8.0 0.00 0.03 0.03 81 1015.9
20260502200804 19 108 3.2 8.0 0.00 0.03 0.03 81 1015.9
20260502200304 19 103 4.8 11.3 0.00 0.03 0.03 81 1015.8
20260502195804 19 115 3.2 9.7 0.00 0.03 0.03 81 1016.0
20260502194803 19 122 1.6 8.0 0.00 0.03 0.03 81 1015.9
20260502194303 19 118 6.4 12.9 0.00 0.03 0.03 81 1015.7
20260502193804 19 97 6.4 12.9 0.00 0.03 0.03 81 1015.7
20260502192804 19 116 8.0 14.5 0.00 0.03 0.03 81 1015.6
20260502191804 19 128 8.0 12.9 0.00 0.03 0.03 80 1015.4
20260502190804 20 105 9.7 19.3 0.00 0.03 0.03 80 1015.5
20260502190304 20 146 9.7 19.3 0.00 0.03 0.03 80 1015.5
20260502185803 20 115 6.4 12.9 0.00 0.03 0.03 80 1015.3
20260502185305 20 94 8.0 11.3 0.00 0.03 0.03 79 1015.4
20260502184304 20 74 9.7 14.5 0.00 0.03 0.03 78 1015.4
20260502183804 20 115 8.0 14.5 0.00 0.03 0.03 78 1015.6
20260502183303 20 83 9.7 14.5 0.00 0.03 0.03 78 1015.5
20260502182804 20 93 9.7 14.5 0.00 0.03 0.03 78 1015.7
20260502181803 20 81 9.7 19.3 0.00 0.03 0.03 78 1016.0
20260502181303 20 88 9.7 19.3 0.00 0.03 0.03 78 1016.0